Location: Unspecified
(47.6577°N, 23.5639°E)
Time: 18:19:24
(UTC+02:00)

ISS - Pass Details

Date: 31 January 2017
Orbit: 399 x 408 km, 51.6° (Epoch: 24 February)

Event Time Altitude Azimuth Distance (km) Brightness Sun altitude
Rises 19:22:20 0° 242° (WSW) 2,317 1.7 -19.8°
Reaches altitude 10° 19:24:24 10° 242° (WSW) 1,458 0.4 -20.1°
Enters shadow 19:27:21 70° 222° (SW) 433 -3.2 -20.6°
